User: anonymous
Location: NJAA Observatory
(40.6819°N, 74.8979°W)
Time: 20:51:38
(UTC-04:00)
Language:

Meteor 2-9 Rocket - Orbit

View from above orbital plane
View from above orbital plane
View from above satellite
View from above satellite

Ground track
Ground track

The orbit data is extracted from the following two-line orbital elements,

1 13719U 82116B   14246.45907711  .00000206  00000-0  98703-4 0  5029
2 13719 081.2519 277.2828 0071797 016.7667 089.7614 14.14473409636488
Epoch (UTC): 03 September 2014 11:01:04
Eccentricity: 0.0071797
inclination: 81.2519°
perigee height: 792 km
apogee height: 896 km
right ascension of ascending node: 277.2828°
argument of perigee: 16.7667°
revolutions per day: 14.14473409
mean anomaly at epoch: 89.7614°
orbit number at epoch: 63648

The dashed part of the orbit path shows where the satellite is in the earth's shadow,  

DLR